H   11.98 G 0.15                    Peri.  108.00078 +/- 0.24
                                    Node   220.25980 +/- 0.35
e   1.0002130 +/- 0.000294          Incl.  116.89574 +/- 0.21
82 of 88 observations 2024 Apr. 5-17; mean residual 0".41
Residuals in arcseconds: 
240405 W68  .55+  .44+    240407 474  .19-  .54+    240411 M21  .44+  .17-    
240405 W68  .72-  .37+    240407 474  .18+  .42+    240411 M21  .43-  .66+    
240405 W68  .31+  .36+    240407 474  .17+  .40+    240411 M49  .00   .01+    
240405 W68  .34-  .18+    240408 W68  .21-  .11-    240411 M49  .11+  .01+    
240405 W68  .21-  .11+    240408 W68  .07-  .10-    240411 M49  .02+  .24-    
240405 474  .11+  .16+    240408 W68  .01-  .19+    240411 M21  .37-  .30+    
240405 474  .05+  .05+    240408 W68  .27-  .47+    240411 323  .71+  .49-    
240405 474  .11+  .02+    240408 W68  .22+  .05-    240411 323  .49+  1.1+    
240405 474  .05+  .04-    240408 W68  .87-  .46-    240411 323  .40+  .89+    
240406 M21  .16+  .27+    240408 X07  .14-  .06-    240411 Q62  .49+  .05+    
240406 M21  .07-  .09+    240408 X07  .10+  .29+    240411 Q62  .06+  .30-    
240406 807  .18+  .07-    240408 X07  .29+  .13+    240411 Q62  .16+  .31-    
240406 807  .19+  .01-    240408 X07  .33+  .45-    240411 Q62  .22-  .46-    
240406 807  .16+  .05-    240408 X07  .46-  .02+    240411 L09  .10+  .33-    
240406 X07  .55+  .15-    240408 X07  .13+  .32-    240411 L09  .15+  .34-    
240406 X07  .51+  .32-    240408 323  .10+  1.4+    240411 L09  .13+  .25-    
240406 R56  1.6-  .01+    240408 323( 1.3+  .98-)   240413 323  .45-  1.4+    
240406 R56  .95-  .48-    240408 323  .49+  .15+    240413 323  1.2-  .11-    
240406 R56  1.2+  .93-    240409 323( 1.2+  1.6+)   240413 323  .28+  .76+    
240406 474  .23+  .01-    240409 323  .29-  .25+    240416 L09  .01+  .14-    
240406 474  .14+  .01+    240409 323  .71+  .24+    240416 L09  .06+  .35-    
240406 474  .19+  .04+    240409 K95( 1.8-  .08-)   240416 L09  .29+  .15-    
240406 474  .13+  .10-    240409 K95( .38-  .18-)   240416 Q62  .21-  .08+    
240407 X07  .01+  .04-    240409 K95  .55-  .57-    240416 Q62  .32+  .23-    
240407 X07  .29+  .08-    240410 W79  .23+  .52-    240416 Q62  .09-  .07-    
240407 X07  .12+  .24-    240410 W79  .03-  .14-    240417 M49  .10-  .03+    
240407 I47  .65-  .16-    240410 W79  .15+  .25-    240417 M49  .20-  .15+    
240407 I47  .12+  .29-    240410 323( 2.2-  .17-)   240417 M49  .22+  .10-    
240407 474  .10+  .04-    240410 323( 1.5-  .98+)   
240407 474  .23-  .59-    240410 323  .93-  .56-    

Ephemerides (geocentric):
Date (UTC) HH   RA             Dec           delta  r     elong  mag " sig PA
---- --------  ------------   ------------  ------ ------ -----  --- --------
2024 04 18 06  18 02 48.682   -76 47 53.65  4.1203 4.5068 106.3 19.1 .206 116
2024 04 18 07  18 02 44.530   -76 48 19.30  4.1195 4.5063 106.3 19.1 .209 116
2024 04 18 08  18 02 40.366   -76 48 44.94  4.1186 4.5058 106.4 19.1 .212 116
2024 04 18 09  18 02 36.189   -76 49 10.59  4.1178 4.5054 106.4 19.1 .215 116
2024 04 18 10  18 02 31.999   -76 49 36.23  4.1169 4.5049 106.4 19.1 .219 116
2024 04 18 11  18 02 27.796   -76 50 01.86  4.1161 4.5044 106.4 19.1 .222 116
2024 04 18 12  18 02 23.581   -76 50 27.49  4.1152 4.5039 106.5 19.1 .225 116
2024 04 18 13  18 02 19.353   -76 50 53.12  4.1144 4.5035 106.5 19.1 .229 116
2024 04 18 14  18 02 15.112   -76 51 18.75  4.1135 4.5030 106.5 19.1 .232 116
2024 04 18 15  18 02 10.859   -76 51 44.37  4.1126 4.5025 106.5 19.1 .235 116
2024 04 18 16  18 02 06.593   -76 52 09.99  4.1118 4.5020 106.6 19.1 .239 116
2024 04 18 17  18 02 02.314   -76 52 35.61  4.1109 4.5016 106.6 19.1 .242 116
2024 04 18 18  18 01 58.022   -76 53 01.22  4.1101 4.5011 106.6 19.1 .245 116
2024 04 18 19  18 01 53.717   -76 53 26.83  4.1092 4.5006 106.6 19.1 .249 116
2024 04 18 20  18 01 49.399   -76 53 52.44  4.1084 4.5001 106.6 19.1 .252 116
2024 04 18 21  18 01 45.068   -76 54 18.04  4.1075 4.4997 106.7 19.1 .256 116
2024 04 18 22  18 01 40.725   -76 54 43.64  4.1067 4.4992 106.7 19.1 .259 116
2024 04 18 23  18 01 36.368   -76 55 09.24  4.1058 4.4987 106.7 19.1 .263 116
2024 04 19 00  18 01 31.999   -76 55 34.83  4.1050 4.4982 106.7 19.0 .266 116
2024 04 19 01  18 01 27.616   -76 56 00.42  4.1041 4.4978 106.8 19.0 .270 116
2024 04 19 02  18 01 23.221   -76 56 26.00  4.1033 4.4973 106.8 19.0 .273 117
2024 04 19 03  18 01 18.812   -76 56 51.58  4.1024 4.4968 106.8 19.0 .277 117
2024 04 19 04  18 01 14.391   -76 57 17.16  4.1016 4.4963 106.8 19.0 .281 117
2024 04 19 05  18 01 09.956   -76 57 42.73  4.1007 4.4959 106.9 19.0 .284 117
2024 04 19 06  18 01 05.508   -76 58 08.30  4.0999 4.4954 106.9 19.0 .288 117
2024 04 19 07  18 01 01.047   -76 58 33.86  4.0990 4.4949 106.9 19.0 .291 117
2024 04 19 08  18 00 56.573   -76 58 59.42  4.0982 4.4945 106.9 19.0 .295 117
2024 04 19 09  18 00 52.086   -76 59 24.98  4.0973 4.4940 106.9 19.0 .299 117
2024 04 19 10  18 00 47.585   -76 59 50.53  4.0965 4.4935 107.0 19.0 .303 117
2024 04 19 11  18 00 43.072   -77 00 16.08  4.0956 4.4930 107.0 19.0 .306 117
2024 04 19 12  18 00 38.545   -77 00 41.62  4.0948 4.4926 107.0 19.0 .310 117
2024 04 19 13  18 00 34.005   -77 01 07.16  4.0939 4.4921 107.0 19.0 .314 117
2024 04 19 14  18 00 29.451   -77 01 32.69  4.0931 4.4916 107.1 19.0 .318 117
2024 04 19 15  18 00 24.884   -77 01 58.22  4.0922 4.4911 107.1 19.0 .321 117
2024 04 19 16  18 00 20.304   -77 02 23.75  4.0914 4.4907 107.1 19.0 .325 117
2024 04 19 17  18 00 15.711   -77 02 49.27  4.0905 4.4902 107.1 19.0 .329 117
2024 04 19 18  18 00 11.104   -77 03 14.79  4.0897 4.4897 107.2 19.0 .333 117
2024 04 19 19  18 00 06.484   -77 03 40.30  4.0888 4.4892 107.2 19.0 .337 117
2024 04 19 20  18 00 01.850   -77 04 05.80  4.0880 4.4888 107.2 19.0 .341 117
2024 04 19 21  17 59 57.203   -77 04 31.31  4.0871 4.4883 107.2 19.0 .345 117
2024 04 19 22  17 59 52.542   -77 04 56.80  4.0863 4.4878 107.2 19.0 .349 117
2024 04 19 23  17 59 47.868   -77 05 22.30  4.0854 4.4873 107.3 19.0 .353 117
2024 04 20 00  17 59 43.181   -77 05 47.78  4.0846 4.4869 107.3 19.0 .357 117
2024 04 20 01  17 59 38.480   -77 06 13.27  4.0837 4.4864 107.3 19.0 .361 117
2024 04 20 02  17 59 33.765   -77 06 38.74  4.0829 4.4859 107.3 19.0 .365 117
2024 04 20 03  17 59 29.037   -77 07 04.22  4.0820 4.4854 107.4 19.0 .369 117
2024 04 20 04  17 59 24.295   -77 07 29.68  4.0812 4.4850 107.4 19.0 .373 118
2024 04 20 05  17 59 19.539   -77 07 55.15  4.0803 4.4845 107.4 19.0 .377 118